Weather History for PHTO - November, 2011

Change the Weather History Date:

Friday, November 11, 2011

  Actual Average Record
Temperature  
Mean Temperature 72 °F 74 °F  
Max Temperature 77 °F 81 °F 86 °F (1968)
Min Temperature 66 °F 68 °F 63 °F (1993)
Degree Days  
Heating Degree Days 0 0  
Month to date heating degree days 0 0  
Since 1 July heating degree days 0 0  
Cooling Degree Days 7 9  
Month to date cooling degree days 97 107  
Year to date cooling degree days 2919 2842  
Growing Degree Days 22 (Base 50)    
Moisture  
Dew Point 66 °F    
Average Humidity 87    
Maximum Humidity 97    
Minimum Humidity 76    
Precipitation  
Precipitation 1.14 in 0.52 in 5.31 in (1986)
Month to date precipitation 11.44 5.70  
Year to date precipitation 71.37 105.35  
Snow  
Snow 0.00 in - - ()
Month to date snowfall 0.0  
Since 1 July snowfall 0.0  
Since 1 September snowfall 0.0  
Snow Depth 0.00 in    
Sea Level Pressure  
Sea Level Pressure 30.08 in    
Wind  
Wind Speed 7 mph (West)    
Max Wind Speed 20 mph    
Max Gust Speed 25 mph    
Visibility 7 miles    
Events Rain    
T = Trace of Precipitation, MM = Missing Value Source: NWS Daily Summary

Daily Weather History Graph

Daily Weather History Graph

Search for Another Location

Airport or City:

Trip Planner

Search our weather history database for the weather conditions in past years. The results will help you decide how hot, cold, wet, or windy it might be!

Date:

Astronomy

Nov. 11, 2011 Rise Set
Actual Time 6:26 AM HST 5:41 PM HST
Civil Twilight 6:03 AM HST 6:04 PM HST
Nautical Twilight 5:36 AM HST 6:31 PM HST
Astronomical Twilight 5:10 AM HST 6:57 PM HST
Moon 6:31 PM HST (11/11) 7:13 AM HST (11/11)
Length of Visible Light 12h 01m
Length of Day
11h 15m
Full, 99% of the Moon is Illuminated
Nov 11
Full
Nov 18
Last Quarter
Nov 24
New
Dec 1
First Quarter
Dec 10
Full

Hourly Weather History & Observations

Time (HST) Temp. Dew Point Humidity Pressure Visibility Wind Dir Wind Speed Gust Speed Precip Events Conditions
12:44 AM 69.8 °F 66.2 °F 88% 30.09 in 10.0 mi Calm Calm - 0.00 in   Overcast
12:53 AM 69.1 °F 64.9 °F 87% 30.08 in 7.0 mi West 5.8 mph - 0.00 in Rain Light Rain
1:05 AM 69.8 °F 66.2 °F 88% 30.08 in 10.0 mi Calm Calm - 0.01 in   Mostly Cloudy
1:53 AM 68.0 °F 64.9 °F 90% 30.07 in 10.0 mi SW 5.8 mph - 0.01 in   Scattered Clouds
2:53 AM 66.9 °F 64.9 °F 93% 30.07 in 10.0 mi WSW 5.8 mph - N/A   Partly Cloudy
3:53 AM 68.0 °F 64.9 °F 90% 30.07 in 5.0 mi WSW 4.6 mph - 0.10 in Rain Light Rain
4:16 AM 68.0 °F 64.4 °F 88% 30.08 in 10.0 mi WSW 4.6 mph - 0.00 in Rain Light Rain
4:53 AM 68.0 °F 63.0 °F 84% 30.08 in 10.0 mi WSW 5.8 mph - 0.00 in   Overcast
5:53 AM 66.9 °F 63.0 °F 87% 30.09 in 10.0 mi WSW 6.9 mph - 0.00 in   Overcast
6:11 AM 66.2 °F 62.6 °F 88% 30.10 in 10.0 mi SW 5.8 mph - 0.00 in Rain Light Rain
6:50 AM 66.2 °F 62.6 °F 88% 30.10 in 6.0 mi SW 4.6 mph - 0.04 in Rain Light Rain
6:53 AM 66.0 °F 63.0 °F 90% 30.10 in 10.0 mi SW 5.8 mph - 0.04 in Rain Light Rain
7:38 AM 66.2 °F 64.4 °F 94% 30.11 in 2.5 mi SE 3.5 mph - 0.02 in Rain Rain
7:51 AM 68.0 °F 64.4 °F 88% 30.12 in 5.0 mi SSW 4.6 mph - 0.04 in Rain Light Rain
7:53 AM 68.0 °F 64.9 °F 90% 30.12 in 3.0 mi Calm Calm - 0.04 in Rain Light Rain
7:58 AM 68.0 °F 64.4 °F 88% 30.12 in 2.0 mi Calm Calm - 0.00 in Rain Heavy Rain
8:01 AM 68.0 °F 64.4 °F 88% 30.12 in 1.2 mi East 4.6 mph - 0.02 in Rain Heavy Rain
8:49 AM 69.8 °F 68.0 °F 94% 30.12 in 4.0 mi West 9.2 mph - 0.48 in Rain Rain
8:53 AM 70.0 °F 68.0 °F 93% 30.12 in 1.5 mi West 6.9 mph - 0.48 in Rain Heavy Rain
9:02 AM 69.8 °F 68.0 °F 94% 30.12 in 7.0 mi West 9.2 mph - 0.05 in   Overcast
9:17 AM 69.8 °F 66.2 °F 88% 30.12 in 0.8 mi West 6.9 mph - 0.07 in Rain Heavy Rain
9:19 AM 69.8 °F 66.2 °F 88% 30.12 in 2.5 mi West 6.9 mph - 0.10 in Rain Rain
9:30 AM 69.8 °F 66.2 °F 88% 30.13 in 1.5 mi WSW 6.9 mph - 0.20 in Rain Heavy Rain
9:37 AM 69.8 °F 66.2 °F 88% 30.12 in 2.0 mi West 8.1 mph - 0.24 in Rain Light Rain
9:44 AM 69.8 °F 66.2 °F 88% 30.12 in 7.0 mi West 9.2 mph - 0.27 in Rain Light Rain
9:53 AM 70.0 °F 66.9 °F 90% 30.12 in 4.0 mi WSW 6.9 mph - 0.28 in Rain Rain
10:11 AM 69.8 °F 66.2 °F 88% 30.12 in 1.8 mi SW 6.9 mph - 0.03 in Rain Heavy Rain
10:18 AM 69.8 °F 66.2 °F 88% 30.12 in 2.5 mi West 8.1 mph - 0.12 in Rain Light Rain
10:26 AM 69.8 °F 66.2 °F 88% 30.12 in 7.0 mi WSW 5.8 mph - 0.13 in Rain Light Rain
10:53 AM 73.0 °F 69.1 °F 87% 30.10 in 10.0 mi Variable 4.6 mph - 0.14 in   Overcast
11:35 AM 75.2 °F 68.0 °F 78% 30.09 in 10.0 mi East 13.8 mph - 0.02 in   Overcast
11:53 AM 77.0 °F 70.0 °F 79% 30.08 in 10.0 mi ENE 13.8 mph - 0.02 in   Overcast
12:45 PM 73.4 °F 66.2 °F 78% 30.07 in 7.0 mi NNE 9.2 mph - 0.00 in   Overcast
12:53 PM 73.0 °F 68.0 °F 84% 30.06 in 4.0 mi NNE 8.1 mph 17.3 mph 0.00 in Rain Heavy Rain
1:01 PM 71.6 °F 68.0 °F 88% 30.06 in 5.0 mi North 5.8 mph - 0.02 in Rain Light Rain
1:32 PM 75.2 °F 68.0 °F 78% 30.04 in 10.0 mi ENE 10.4 mph - 0.02 in Rain Light Rain
1:53 PM 75.9 °F 69.1 °F 79% 30.03 in 10.0 mi ENE 11.5 mph - 0.02 in   Overcast
2:29 PM 75.2 °F 68.0 °F 78% 30.02 in 10.0 mi East 8.1 mph - N/A   Overcast
2:41 PM 73.4 °F 66.2 °F 78% 30.02 in 7.0 mi NE 11.5 mph 19.6 mph 0.00 in Rain Light Rain
2:53 PM 73.9 °F 66.9 °F 79% 30.02 in 7.0 mi ENE 13.8 mph 19.6 mph 0.00 in Rain Light Rain
3:14 PM 73.4 °F 68.0 °F 83% 30.02 in 7.0 mi ENE 8.1 mph - 0.01 in Rain Light Rain
3:53 PM 73.0 °F 66.9 °F 81% 30.02 in 7.0 mi ENE 12.7 mph - 0.01 in Rain Light Rain
4:04 PM 73.4 °F 68.0 °F 83% 30.02 in 10.0 mi ENE 8.1 mph - 0.00 in   Overcast
4:48 PM 73.4 °F 66.2 °F 78% 30.03 in 10.0 mi ENE 11.5 mph - 0.00 in   Overcast
4:53 PM 73.9 °F 66.0 °F 76% 30.03 in 10.0 mi ENE 9.2 mph - 0.00 in   Overcast
5:53 PM 73.0 °F 66.0 °F 79% 30.04 in 10.0 mi East 8.1 mph - 0.00 in   Overcast
6:53 PM 73.0 °F 66.0 °F 79% 30.05 in 10.0 mi East 3.5 mph - N/A   Overcast
7:53 PM 73.0 °F 64.9 °F 76% 30.06 in 10.0 mi East 9.2 mph - 0.00 in   Overcast
8:45 PM 71.6 °F 66.2 °F 83% 30.08 in 8.0 mi East 8.1 mph - 0.00 in Rain Light Rain
8:53 PM 72.0 °F 64.9 °F 78% 30.08 in 8.0 mi Calm Calm - 0.00 in Rain Light Rain
9:07 PM 71.6 °F 66.2 °F 83% 30.08 in 10.0 mi Calm Calm - 0.00 in   Overcast
9:50 PM 71.6 °F 66.2 °F 83% 30.09 in 4.0 mi WSW 3.5 mph - 0.01 in Rain Rain
9:53 PM 71.1 °F 66.9 °F 87% 30.08 in 5.0 mi WSW 3.5 mph - 0.01 in Rain Light Rain
10:04 PM 71.6 °F 66.2 °F 83% 30.09 in 10.0 mi West 4.6 mph - 0.01 in Rain Light Rain
10:11 PM 71.6 °F 66.2 °F 83% 30.09 in 10.0 mi West 4.6 mph - 0.01 in   Overcast
10:53 PM 70.0 °F 66.0 °F 87% 30.08 in 10.0 mi West 8.1 mph - 0.06 in   Overcast
11:04 PM 69.8 °F 66.2 °F 88% 30.08 in 10.0 mi West 6.9 mph - N/A   Overcast
11:29 PM 69.8 °F 66.2 °F 88% 30.07 in 2.5 mi Variable 4.6 mph - 0.00 in Rain Heavy Rain
11:31 PM 69.8 °F 66.2 °F 88% 30.08 in 1.8 mi West 6.9 mph - 0.02 in Rain Heavy Rain
11:40 PM 69.8 °F 66.2 °F 88% 30.07 in 3.0 mi WNW 5.8 mph - 0.13 in Rain Rain
11:53 PM 70.0 °F 66.9 °F 90% 30.07 in 10.0 mi West 6.9 mph - 0.14 in Rain Light Rain